• In Hungary
  • List of Countries
  • For 7 days
  • Water Temperature
  • Satellite Maps
  • Weather Map
  • News
  • Weather Widgets
  • user-avatar
    Login

    Hourly Weather Lohne

    Today, 18 February, Sunday

    Time Temperature Precipitation Wind Pressure Humidity
    00:00 0°C° 0 mm 1 mps 762 mmHg 89%
    01:00 0°C° 0 mm 1 mps 762 mmHg 89%
    02:00 0°C° 0 mm 1 mps 762 mmHg 89%
    03:00 0°C° 0 mm 1 mps 763 mmHg 89%
    04:00 0°C° 0 mm 1 mps 763 mmHg 89%
    05:00 0°C° 0 mm 1 mps 763 mmHg 88%
    06:00 0°C° 0 mm 1 mps 763 mmHg 87%
    07:00 -2°C° 0 mm 2 mps 763 mmHg 87%
    08:00 -1°C° 0 mm 2 mps 763 mmHg 81%
    09:00 +1°C° 0 mm 2 mps 763 mmHg 76%
    10:00 +2°C° 0 mm 2 mps 763 mmHg 70%
    11:00 +3°C° 0 mm 2 mps 763 mmHg 64%
    12:00 +4°C° 0 mm 2 mps 763 mmHg 59%
    13:00 +5°C° 0 mm 2 mps 763 mmHg 53%
    14:00 +5°C° 0 mm 2 mps 762 mmHg 55%
    15:00 +5°C° 0 mm 2 mps 762 mmHg 57%
    16:00 +5°C° 0 mm 2 mps 762 mmHg 59%
    17:00 +4°C° 0 mm 2 mps 762 mmHg 64%
    18:00 +2°C° 0 mm 2 mps 762 mmHg 69%
    19:00 +1°C° 0 mm 2 mps 762 mmHg 75%
    20:00 +1°C° 0 mm 2 mps 762 mmHg 76%
    21:00 +1°C° 0 mm 2 mps 762 mmHg 77%
    22:00 -1°C° 0 mm 2 mps 762 mmHg 78%
    23:00 -1°C° 0 mm 2 mps 761 mmHg 79%

    Tomorrow, 19 February, Monday

    Time Temperature Precipitation Wind Pressure Humidity
    00:00 -1°C° 0 mm 2 mps 761 mmHg 80%
    01:00 -1°C° 0 mm 2 mps 761 mmHg 81%
    02:00 -2°C° 0 mm 2 mps 761 mmHg 80%
    03:00 -2°C° 0 mm 2 mps 760 mmHg 79%
    04:00 -2°C° 0 mm 2 mps 760 mmHg 79%
    05:00 -1°C° 0 mm 2 mps 760 mmHg 78%
    06:00 -1°C° 0 mm 2 mps 759 mmHg 77%
    07:00 -1°C° 0 mm 2 mps 759 mmHg 76%
    08:00 +1°C° 0 mm 2 mps 759 mmHg 72%
    09:00 +1°C° 0 mm 2 mps 759 mmHg 69%
    10:00 +2°C° 0 mm 2 mps 759 mmHg 65%
    11:00 +3°C° 0 mm 2 mps 759 mmHg 62%
    12:00 +4°C° 0 mm 2 mps 758 mmHg 59%
    13:00 +5°C° 0 mm 2 mps 758 mmHg 56%
    14:00 +5°C° 0 mm 2 mps 758 mmHg 59%
    15:00 +5°C° 0 mm 2 mps 757 mmHg 62%
    16:00 +6°C° 0 mm 1 mps 757 mmHg 65%
    17:00 +5°C° 0.1 mm 1 mps 757 mmHg 68%
    18:00 +4°C° 0.1 mm 1 mps 757 mmHg 71%
    19:00 +3°C° 0.1 mm 1 mps 756 mmHg 74%
    20:00 +3°C° 0.2 mm 1 mps 756 mmHg 75%
    21:00 +3°C° 0.2 mm 1 mps 756 mmHg 76%
    22:00 +2°C° 0.2 mm 2 mps 756 mmHg 77%
    23:00 +2°C° 0.6 mm 2 mps 756 mmHg 79%

    Day after tomorrow, 20 February, Tuesday

    Time Temperature Precipitation Wind Pressure Humidity
    00:00 +2°C° 0.6 mm 2 mps 755 mmHg 81%
    01:00 +1°C° 0.6 mm 2 mps 755 mmHg 83%
    02:00 +1°C° 0.7 mm 2 mps 755 mmHg 86%
    03:00 +1°C° 0.7 mm 2 mps 754 mmHg 88%
    04:00 +1°C° 0.7 mm 2 mps 754 mmHg 91%
    05:00 +1°C° 0.5 mm 2 mps 754 mmHg 92%
    06:00 +1°C° 0.5 mm 2 mps 754 mmHg 93%
    07:00 +1°C° 0.5 mm 2 mps 753 mmHg 94%
    08:00 0°C° 0.1 mm 3 mps 754 mmHg 93%
    09:00 0°C° 0.1 mm 3 mps 754 mmHg 93%
    10:00 0°C° 0.1 mm 3 mps 754 mmHg 93%
    11:00 +1°C° 0 mm 3 mps 754 mmHg 91%
    12:00 +1°C° 0 mm 3 mps 755 mmHg 88%
    13:00 +2°C° 0 mm 3 mps 755 mmHg 86%
    14:00 +2°C° 0 mm 3 mps 755 mmHg 84%
    15:00 +2°C° 0 mm 3 mps 755 mmHg 83%
    16:00 +2°C° 0 mm 3 mps 756 mmHg 81%
    17:00 +1°C° 0 mm 3 mps 756 mmHg 82%
    18:00 0°C° 0 mm 3 mps 756 mmHg 83%
    19:00 -1°C° 0 mm 3 mps 757 mmHg 85%
    20:00 -1°C° 0 mm 3 mps 757 mmHg 86%
    21:00 -2°C° 0 mm 3 mps 758 mmHg 87%
    22:00 -2°C° 0 mm 3 mps 759 mmHg 88%
    23:00 -4°C° 0 mm 3 mps 759 mmHg 89%

    21 February, Wednesday

    Time Temperature Precipitation Wind Pressure Humidity
    00:00 -4°C° 0 mm 3 mps 759 mmHg 90%
    01:00 -3°C° 0 mm 2 mps 759 mmHg 91%
    02:00 -4°C° 0 mm 2 mps 759 mmHg 92%
    03:00 -4°C° 0 mm 2 mps 759 mmHg 92%
    04:00 -4°C° 0 mm 2 mps 759 mmHg 93%
    05:00 -5°C° 0 mm 3 mps 759 mmHg 93%
    06:00 -5°C° 0 mm 3 mps 760 mmHg 94%
    07:00 -5°C° 0 mm 3 mps 760 mmHg 94%
    08:00 -4°C° 0 mm 3 mps 760 mmHg 92%
    09:00 -4°C° 0 mm 4 mps 760 mmHg 89%
    10:00 -3°C° 0 mm 4 mps 760 mmHg 86%
    11:00 -3°C° 0 mm 4 mps 760 mmHg 84%
    12:00 -2°C° 0 mm 4 mps 760 mmHg 81%
    13:00 -2°C° 0 mm 4 mps 760 mmHg 79%
    14:00 -2°C° 0 mm 4 mps 760 mmHg 77%
    15:00 -2°C° 0 mm 4 mps 760 mmHg 75%
    16:00 -2°C° 0 mm 4 mps 760 mmHg 74%
    17:00 -2°C° 0 mm 4 mps 760 mmHg 74%
    18:00 -2°C° 0 mm 4 mps 760 mmHg 75%
    19:00 -2°C° 0 mm 3 mps 761 mmHg 76%
    20:00 -2°C° 0 mm 3 mps 761 mmHg 77%
    21:00 -2°C° 0 mm 3 mps 761 mmHg 77%
    22:00 -4°C° 0 mm 3 mps 761 mmHg 78%
    23:00 -4°C° 0 mm 3 mps 761 mmHg 79%

    22 February, Thursday

    Time Temperature Precipitation Wind Pressure Humidity
    00:00 -5°C° 0 mm 3 mps 761 mmHg 80%
    01:00 -5°C° 0 mm 3 mps 761 mmHg 82%
    02:00 -5°C° 0 mm 3 mps 761 mmHg 82%
    03:00 -5°C° 0 mm 3 mps 761 mmHg 82%
    04:00 -6°C° 0 mm 3 mps 761 mmHg 83%
    05:00 -6°C° 0 mm 3 mps 761 mmHg 83%
    06:00 -6°C° 0 mm 3 mps 761 mmHg 83%
    07:00 -6°C° 0 mm 3 mps 761 mmHg 83%
    08:00 -5°C° 0 mm 4 mps 761 mmHg 79%
    09:00 -5°C° 0 mm 4 mps 761 mmHg 75%
    10:00 -4°C° 0 mm 4 mps 761 mmHg 71%
    11:00 -3°C° 0 mm 4 mps 761 mmHg 68%
    12:00 -3°C° 0 mm 4 mps 760 mmHg 65%
    13:00 -2°C° 0 mm 4 mps 760 mmHg 63%
    14:00 -2°C° 0 mm 4 mps 760 mmHg 62%
    15:00 -2°C° 0 mm 4 mps 760 mmHg 62%
    16:00 -2°C° 0 mm 4 mps 759 mmHg 62%
    17:00 -3°C° 0 mm 4 mps 760 mmHg 66%
    18:00 -4°C° 0 mm 3 mps 760 mmHg 70%
    19:00 -5°C° 0 mm 3 mps 760 mmHg 75%
    20:00 -5°C° 0 mm 3 mps 760 mmHg 75%
    21:00 -5°C° 0 mm 3 mps 760 mmHg 76%
    22:00 -5°C° 0 mm 3 mps 761 mmHg 77%
    23:00 -4°C° 0 mm 2 mps 761 mmHg 78%

    23 February, Friday

    Time Temperature Precipitation Wind Pressure Humidity
    00:00 -4°C° 0 mm 2 mps 761 mmHg 78%
    01:00 -4°C° 0 mm 2 mps 761 mmHg 79%
    02:00 -4°C° 0 mm 2 mps 760 mmHg 80%
    03:00 -5°C° 0 mm 2 mps 760 mmHg 81%
    04:00 -5°C° 0 mm 2 mps 760 mmHg 83%
    05:00 -5°C° 0 mm 2 mps 760 mmHg 84%
    06:00 -5°C° 0 mm 2 mps 761 mmHg 84%
    07:00 -5°C° 0 mm 2 mps 761 mmHg 85%
    08:00 -4°C° 0 mm 2 mps 761 mmHg 79%
    09:00 -5°C° 0 mm 3 mps 761 mmHg 72%
    10:00 -4°C° 0 mm 3 mps 761 mmHg 65%
    11:00 -2°C° 0 mm 3 mps 761 mmHg 62%
    12:00 -2°C° 0 mm 3 mps 761 mmHg 59%
    13:00 -1°C° 0 mm 3 mps 761 mmHg 56%
    14:00 -1°C° 0 mm 3 mps 761 mmHg 56%
    15:00 -1°C° 0 mm 3 mps 761 mmHg 56%
    16:00 -1°C° 0 mm 3 mps 761 mmHg 56%
    17:00 -2°C° 0 mm 3 mps 761 mmHg 60%
    18:00 -4°C° 0 mm 3 mps 761 mmHg 64%
    19:00 -4°C° 0 mm 2 mps 762 mmHg 69%
    20:00 -5°C° 0 mm 3 mps 762 mmHg 69%
    21:00 -5°C° 0 mm 3 mps 763 mmHg 70%
    22:00 -5°C° 0 mm 3 mps 763 mmHg 71%
    23:00 -6°C° 0 mm 3 mps 763 mmHg 70%
    Show more